When you browse on this site, cookies collect data to enhance your experience and personalize the content and advertising you see.
Visit our Privacy Policy to learn more. By continuing to use the site, you agree to this use of cookies and data.

Hourly Weather Kindia

Today, 10 August, Monday

Time Temperature Precipitation Wind Pressure Humidity
00:00 +24°C° 0 mm 3 mps 706 mmHg 87%
01:00 +23°C° 0 mm 2 mps 706 mmHg 87%
02:00 +22°C° 0.1 mm 3 mps 706 mmHg 88%
03:00 +22°C° 0.1 mm 3 mps 706 mmHg 89%
04:00 +22°C° 0.1 mm 3 mps 706 mmHg 89%
05:00 +22°C° 0.1 mm 3 mps 706 mmHg 89%
06:00 +22°C° 0.1 mm 3 mps 706 mmHg 89%
07:00 +22°C° 0.1 mm 3 mps 706 mmHg 89%
08:00 +24°C° 0.2 mm 3 mps 707 mmHg 85%
09:00 +25°C° 0.2 mm 4 mps 707 mmHg 80%
10:00 +26°C° 0.2 mm 4 mps 708 mmHg 75%
11:00 +27°C° 0.1 mm 4 mps 707 mmHg 71%
12:00 +29°C° 0.1 mm 5 mps 707 mmHg 67%
13:00 +30°C° 0.1 mm 5 mps 707 mmHg 63%
14:00 +29°C° 0.4 mm 4 mps 706 mmHg 65%
15:00 +29°C° 0.4 mm 4 mps 705 mmHg 67%
16:00 +29°C° 0.4 mm 3 mps 705 mmHg 70%
17:00 +27°C° 0.3 mm 3 mps 705 mmHg 75%
18:00 +26°C° 0.3 mm 2 mps 705 mmHg 81%
19:00 +24°C° 0.3 mm 2 mps 705 mmHg 87%
20:00 +24°C° 0 mm 2 mps 706 mmHg 88%
21:00 +24°C° 0 mm 2 mps 706 mmHg 88%
22:00 +23°C° 0 mm 2 mps 707 mmHg 89%
23:00 +23°C° 0 mm 2 mps 707 mmHg 90%

Tomorrow, 11 August, Tuesday

Time Temperature Precipitation Wind Pressure Humidity
00:00 +22°C° 0 mm 3 mps 707 mmHg 91%
01:00 +22°C° 0 mm 3 mps 707 mmHg 93%
02:00 +22°C° 0 mm 3 mps 707 mmHg 93%
03:00 +22°C° 0 mm 3 mps 707 mmHg 93%
04:00 +21°C° 0 mm 3 mps 706 mmHg 93%
05:00 +21°C° 0 mm 3 mps 707 mmHg 92%
06:00 +21°C° 0 mm 3 mps 707 mmHg 92%
07:00 +21°C° 0 mm 3 mps 708 mmHg 91%
08:00 +24°C° 0 mm 3 mps 708 mmHg 85%
09:00 +25°C° 0 mm 4 mps 709 mmHg 79%
10:00 +26°C° 0 mm 4 mps 709 mmHg 73%
11:00 +27°C° 0 mm 4 mps 709 mmHg 70%
12:00 +28°C° 0 mm 4 mps 708 mmHg 67%
13:00 +29°C° 0 mm 4 mps 708 mmHg 64%
14:00 +29°C° 0 mm 4 mps 707 mmHg 65%
15:00 +29°C° 0 mm 3 mps 706 mmHg 66%
16:00 +29°C° 0 mm 3 mps 706 mmHg 66%
17:00 +27°C° 0 mm 3 mps 706 mmHg 72%
18:00 +26°C° 0 mm 2 mps 706 mmHg 78%
19:00 +25°C° 0 mm 1 mps 706 mmHg 84%
20:00 +24°C° 0 mm 2 mps 707 mmHg 85%
21:00 +24°C° 0 mm 2 mps 707 mmHg 85%
22:00 +23°C° 0 mm 2 mps 708 mmHg 85%
23:00 +23°C° 0 mm 2 mps 708 mmHg 86%

Day after tomorrow, 12 August, Wednesday

Time Temperature Precipitation Wind Pressure Humidity
00:00 +23°C° 0 mm 2 mps 708 mmHg 86%
01:00 +23°C° 0 mm 2 mps 708 mmHg 86%
02:00 +23°C° 0 mm 2 mps 707 mmHg 86%
03:00 +21°C° 0 mm 2 mps 707 mmHg 86%
04:00 +21°C° 0 mm 2 mps 707 mmHg 86%
05:00 +21°C° 0 mm 2 mps 707 mmHg 87%
06:00 +23°C° 0 mm 2 mps 708 mmHg 88%
07:00 +23°C° 0 mm 2 mps 709 mmHg 88%
08:00 +24°C° 0 mm 2 mps 709 mmHg 83%
09:00 +26°C° 0 mm 3 mps 709 mmHg 77%
10:00 +27°C° 0 mm 3 mps 710 mmHg 72%
11:00 +28°C° 0.1 mm 3 mps 709 mmHg 71%
12:00 +28°C° 0.1 mm 3 mps 708 mmHg 70%
13:00 +29°C° 0.1 mm 3 mps 708 mmHg 68%
14:00 +29°C° 0.6 mm 3 mps 707 mmHg 70%
15:00 +28°C° 0.6 mm 3 mps 706 mmHg 72%
16:00 +28°C° 0.6 mm 3 mps 706 mmHg 75%
17:00 +27°C° 0.6 mm 2 mps 706 mmHg 79%
18:00 +26°C° 0.6 mm 1 mps 706 mmHg 83%
19:00 +25°C° 0.6 mm 1 mps 707 mmHg 87%
20:00 +25°C° 0 mm 1 mps 707 mmHg 88%
21:00 +24°C° 0 mm 1 mps 707 mmHg 89%
22:00 +24°C° 0 mm 1 mps 708 mmHg 90%
23:00 +24°C° 0 mm 1 mps 707 mmHg 91%

13 August, Thursday

Time Temperature Precipitation Wind Pressure Humidity
00:00 +24°C° 0 mm 1 mps 707 mmHg 92%
01:00 +23°C° 0 mm 1 mps 706 mmHg 92%
02:00 +23°C° 1.2 mm 2 mps 706 mmHg 93%
03:00 +23°C° 1.2 mm 2 mps 706 mmHg 94%
04:00 +23°C° 1.2 mm 2 mps 706 mmHg 95%
05:00 +23°C° 2.1 mm 2 mps 706 mmHg 95%
06:00 +23°C° 2.1 mm 2 mps 706 mmHg 96%
07:00 +21°C° 2.1 mm 2 mps 707 mmHg 97%
08:00 +21°C° 3 mm 2 mps 707 mmHg 97%
09:00 +23°C° 3 mm 2 mps 707 mmHg 97%
10:00 +23°C° 3 mm 2 mps 708 mmHg 97%
11:00 +22°C° 1.6 mm 3 mps 707 mmHg 96%
12:00 +22°C° 1.6 mm 3 mps 706 mmHg 95%
13:00 +24°C° 1.6 mm 3 mps 706 mmHg 94%
14:00 +24°C° 1 mm 3 mps 705 mmHg 94%
15:00 +22°C° 1 mm 3 mps 705 mmHg 95%
16:00 +23°C° 1 mm 2 mps 704 mmHg 95%
17:00 +23°C° 1.3 mm 2 mps 704 mmHg 96%
18:00 +23°C° 1.3 mm 1 mps 704 mmHg 96%
19:00 +22°C° 1.3 mm 1 mps 704 mmHg 97%
20:00 +23°C° 0.4 mm 1 mps 705 mmHg 97%
21:00 +23°C° 0.4 mm 1 mps 706 mmHg 97%
22:00 +23°C° 0.4 mm 1 mps 706 mmHg 96%
23:00 +22°C° 0.2 mm 1 mps 706 mmHg 96%

14 August, Friday

Time Temperature Precipitation Wind Pressure Humidity
00:00 +22°C° 0.2 mm 1 mps 705 mmHg 96%
01:00 +22°C° 0.2 mm 1 mps 705 mmHg 97%
02:00 +22°C° 0.3 mm 1 mps 705 mmHg 97%
03:00 +22°C° 0.3 mm 1 mps 705 mmHg 97%
04:00 +21°C° 0.3 mm 2 mps 704 mmHg 97%
05:00 +21°C° 0.1 mm 2 mps 705 mmHg 97%
06:00 +21°C° 0.1 mm 2 mps 705 mmHg 97%
07:00 +23°C° 0.1 mm 2 mps 705 mmHg 97%
08:00 +22°C° 0.1 mm 3 mps 706 mmHg 95%
09:00 +22°C° 0.1 mm 4 mps 706 mmHg 94%
10:00 +23°C° 0.1 mm 4 mps 706 mmHg 93%
11:00 +25°C° 0.1 mm 4 mps 706 mmHg 88%
12:00 +26°C° 0.1 mm 5 mps 705 mmHg 82%
13:00 +27°C° 0.1 mm 5 mps 705 mmHg 77%
14:00 +26°C° 0 mm 5 mps 704 mmHg 78%
15:00 +26°C° 0 mm 4 mps 704 mmHg 79%
16:00 +26°C° 0 mm 4 mps 704 mmHg 80%
17:00 +25°C° 0 mm 4 mps 704 mmHg 84%
18:00 +24°C° 0 mm 3 mps 704 mmHg 87%
19:00 +21°C° 0 mm 3 mps 704 mmHg 91%
20:00 +21°C° 0 mm 3 mps 705 mmHg 91%
21:00 +21°C° 0 mm 3 mps 706 mmHg 91%
22:00 +21°C° 0 mm 3 mps 706 mmHg 91%
23:00 +21°C° 0 mm 3 mps 706 mmHg 91%

15 August, Saturday

Time Temperature Precipitation Wind Pressure Humidity
00:00 +20°C° 0 mm 3 mps 706 mmHg 91%
01:00 +20°C° 0 mm 3 mps 706 mmHg 91%
02:00 +20°C° 0 mm 3 mps 705 mmHg 91%
03:00 +20°C° 0 mm 3 mps 705 mmHg 91%
04:00 +20°C° 0 mm 3 mps 705 mmHg 91%
05:00 +20°C° 0 mm 3 mps 705 mmHg 91%
06:00 +20°C° 0 mm 3 mps 705 mmHg 91%
07:00 +21°C° 0 mm 3 mps 706 mmHg 91%
08:00 +22°C° 0 mm 4 mps 706 mmHg 87%
09:00 +23°C° 0 mm 4 mps 707 mmHg 84%
10:00 +25°C° 0 mm 4 mps 707 mmHg 80%
11:00 +25°C° 0 mm 4 mps 706 mmHg 78%
12:00 +26°C° 0 mm 4 mps 706 mmHg 76%
13:00 +27°C° 0 mm 4 mps 705 mmHg 73%
14:00 +27°C° 0 mm 4 mps 705 mmHg 73%
15:00 +27°C° 0 mm 4 mps 705 mmHg 72%
16:00 +28°C° 0 mm 3 mps 704 mmHg 72%
17:00 +26°C° 0 mm 3 mps 704 mmHg 77%
18:00 +25°C° 0 mm 2 mps 704 mmHg 82%
19:00 +24°C° 0 mm 2 mps 704 mmHg 88%
20:00 +23°C° 0 mm 2 mps 704 mmHg 88%
21:00 +23°C° 0 mm 2 mps 705 mmHg 87%
22:00 +22°C° 0 mm 3 mps 705 mmHg 87%
23:00 +22°C° 0.1 mm 3 mps 705 mmHg 88%
Show more